| time (UTC) | temp F | wind direction | speed knots | gust knots | rain 1hr in | rain 24hr in | rain mn in | humidity % | barometer mb |
| 20260504044053 | 63 | 173 | 2.6 | 6.1 | 0.00 | 0.00 | 0.00 | 68 | 1015.9 |
| 20260504043552 | 63 | 189 | 0.0 | 7.0 | 0.00 | 0.00 | 0.00 | 68 | 1015.9 |
| 20260504043059 | 63 | 0 | 5.2 | 7.0 | 0.00 | 0.00 | 0.00 | 67 | 1016.0 |
| 20260504042552 | 63 | 179 | 1.7 | 6.1 | 0.00 | 0.00 | 0.00 | 67 | 1015.9 |
| 20260504042052 | 63 | 0 | 0.0 | 0.0 | 0.00 | 0.00 | 0.00 | 66 | 1015.9 |
| 20260504041600 | 63 | 0 | 0.0 | 0.0 | 0.00 | 0.00 | 0.00 | 66 | 1015.9 |
| 20260504041053 | 63 | 0 | 0.0 | 0.0 | 0.00 | 0.00 | 0.00 | 65 | 1015.9 |
| 20260504040555 | 63 | 0 | 0.0 | 0.0 | 0.00 | 0.00 | 0.00 | 65 | 1015.9 |
| 20260504035556 | 63 | 0 | 0.0 | 0.0 | 0.00 | 0.00 | 0.00 | 64 | 1015.9 |
| 20260504035055 | 63 | 0 | 0.0 | 6.1 | 0.00 | 0.00 | 0.00 | 64 | 1015.8 |
| 20260504034557 | 64 | 0 | 0.9 | 6.1 | 0.00 | 0.00 | 0.00 | 63 | 1015.8 |
| 20260504034057 | 64 | 177 | 4.3 | 6.1 | 0.00 | 0.00 | 0.00 | 62 | 1015.9 |
| 20260504033555 | 64 | 0 | 0.0 | 6.1 | 0.00 | 0.00 | 0.00 | 62 | 1015.9 |
| 20260504033053 | 64 | 0 | 3.5 | 6.1 | 0.00 | 0.00 | 0.00 | 61 | 1015.9 |
| 20260504032555 | 64 | 186 | 0.0 | 0.0 | 0.00 | 0.00 | 0.00 | 61 | 1015.9 |
| 20260504032058 | 64 | 0 | 0.0 | 0.0 | 0.00 | 0.00 | 0.00 | 61 | 1015.8 |
| 20260504031555 | 64 | 0 | 0.0 | 0.0 | 0.00 | 0.00 | 0.00 | 60 | 1015.9 |
| 20260504031052 | 65 | 0 | 0.0 | 0.0 | 0.00 | 0.00 | 0.00 | 60 | 1016.0 |
| 20260504030555 | 65 | 0 | 0.0 | 4.3 | 0.00 | 0.00 | 0.00 | 59 | 1015.9 |
| 20260504030055 | 65 | 0 | 0.0 | 4.3 | 0.00 | 0.00 | 0.00 | 59 | 1015.9 |
| 20260504025555 | 65 | 0 | 0.0 | 4.3 | 0.00 | 0.00 | 0.00 | 59 | 1015.9 |
| 20260504025052 | 65 | 0 | 0.0 | 0.0 | 0.00 | 0.00 | 0.00 | 58 | 1015.8 |
| 20260504024609 | 65 | 0 | 0.0 | 0.0 | 0.00 | 0.00 | 0.00 | 58 | 1015.9 |
| 20260504024053 | 65 | 0 | 0.0 | 0.0 | 0.00 | 0.00 | 0.00 | 58 | 1015.9 |
| 20260504023555 | 65 | 0 | 0.0 | 3.5 | 0.00 | 0.00 | 0.00 | 58 | 1015.9 |
| 20260504023054 | 66 | 0 | 0.0 | 3.5 | 0.00 | 0.00 | 0.00 | 57 | 1015.8 |
| 20260504022557 | 66 | 0 | 0.0 | 2.6 | 0.00 | 0.00 | 0.00 | 55 | 1015.7 |
| 20260504022055 | 66 | 0 | 0.0 | 5.2 | 0.00 | 0.00 | 0.00 | 55 | 1015.7 |
| 20260504021555 | 67 | 0 | 0.0 | 5.2 | 0.00 | 0.00 | 0.00 | 54 | 1015.6 |
| 20260504021055 | 67 | 0 | 0.9 | 5.2 | 0.00 | 0.00 | 0.00 | 53 | 1015.6 |
| 20260504020557 | 67 | 0 | 0.0 | 4.3 | 0.00 | 0.00 | 0.00 | 52 | 1015.6 |
| 20260504020057 | 68 | 0 | 0.0 | 4.3 | 0.00 | 0.00 | 0.00 | 52 | 1015.5 |
| 20260504015556 | 68 | 0 | 0.9 | 4.3 | 0.00 | 0.00 | 0.00 | 51 | 1015.5 |
| 20260504015056 | 68 | 0 | 0.0 | 3.5 | 0.00 | 0.00 | 0.00 | 50 | 1015.4 |
| 20260504014605 | 68 | 0 | 0.0 | 3.5 | 0.00 | 0.00 | 0.00 | 50 | 1015.5 |
| 20260504014055 | 69 | 0 | 0.0 | 3.5 | 0.00 | 0.00 | 0.00 | 49 | 1015.4 |
| 20260504013555 | 69 | 0 | 0.9 | 3.5 | 0.00 | 0.00 | 0.00 | 49 | 1015.4 |
| 20260504013058 | 69 | 0 | 0.0 | 0.0 | 0.00 | 0.00 | 0.00 | 49 | 1015.4 |
| 20260504012555 | 69 | 0 | 0.0 | 0.0 | 0.00 | 0.00 | 0.00 | 48 | 1015.4 |
| 20260504012054 | 70 | 0 | 0.0 | 0.0 | 0.00 | 0.00 | 0.00 | 48 | 1015.4 |
| 20260504011631 | 71 | 0 | 0.0 | 0.0 | 0.00 | 0.00 | 0.00 | 47 | 1015.4 |
| 20260504011054 | 71 | 0 | 0.0 | 0.0 | 0.00 | 0.00 | 0.00 | 46 | 1015.3 |
| 20260504010552 | 72 | 0 | 0.0 | 0.0 | 0.00 | 0.00 | 0.00 | 44 | 1015.2 |
| 20260504010104 | 72 | 0 | 0.0 | 0.0 | 0.00 | 0.00 | 0.00 | 45 | 1015.2 |
| 20260504005553 | 72 | 0 | 0.0 | 0.0 | 0.00 | 0.00 | 0.00 | 45 | 1015.0 |
| 20260504005057 | 72 | 0 | 0.0 | 0.0 | 0.00 | 0.00 | 0.00 | 46 | 1015.1 |
| 20260504004553 | 73 | 0 | 0.0 | 3.5 | 0.00 | 0.00 | 0.00 | 44 | 1015.1 |
| 20260504004055 | 73 | 0 | 0.0 | 3.5 | 0.00 | 0.00 | 0.00 | 43 | 1015.0 |
| 20260504003556 | 74 | 210 | 0.0 | 0.0 | 0.00 | 0.00 | 0.00 | 42 | 1015.1 |
| 20260504003056 | 74 | 0 | 0.0 | 0.0 | 0.00 | 0.00 | 0.00 | 41 | 1015.0 |
| 20260504002555 | 74 | 0 | 0.0 | 0.0 | 0.00 | 0.00 | 0.00 | 40 | 1014.8 |
| 20260504002055 | 74 | 0 | 0.0 | 0.0 | 0.00 | 0.00 | 0.00 | 40 | 1014.8 |
| 20260504001556 | 75 | 0 | 0.0 | 6.1 | 0.00 | 0.00 | 0.00 | 39 | 1014.9 |
| 20260504001052 | 75 | 0 | 0.0 | 6.1 | 0.00 | 0.00 | 0.00 | 38 | 1015.0 |
| 20260504000557 | 75 | 0 | 0.0 | 8.7 | 0.00 | 0.00 | 0.00 | 38 | 1015.0 |
| 20260504000137 | 75 | 0 | 0.9 | 8.7 | 0.00 | 0.00 | 0.00 | 38 | 1015.1 |
| 20260503235554 | 75 | 218 | 0.9 | 13.0 | 0.00 | 0.00 | 0.00 | 39 | 1015.1 |
| 20260503235053 | 75 | 221 | 4.3 | 13.0 | 0.00 | 0.00 | 0.00 | 38 | 1015.2 |
| 20260503234601 | 76 | 214 | 9.6 | 13.0 | 0.00 | 0.00 | 0.00 | 37 | 1015.2 |
| 20260503234058 | 76 | 198 | 4.3 | 14.8 | 0.00 | 0.00 | 0.00 | 38 | 1015.3 |
| 20260503233553 | 76 | 0 | 1.7 | 14.8 | 0.00 | 0.00 | 0.00 | 39 | 1015.3 |
| 20260503233054 | 76 | 263 | 7.8 | 14.8 | 0.00 | 0.00 | 0.00 | 38 | 1015.3 |
| 20260503232552 | 76 | 0 | 0.0 | 8.7 | 0.00 | 0.00 | 0.00 | 39 | 1015.5 |
| 20260503232055 | 76 | 0 | 0.9 | 9.6 | 0.00 | 0.00 | 0.00 | 38 | 1015.5 |
| 20260503231556 | 76 | 254 | 0.9 | 9.6 | 0.00 | 0.00 | 0.00 | 36 | 1015.6 |
| 20260503231052 | 76 | 250 | 0.0 | 9.6 | 0.00 | 0.00 | 0.00 | 38 | 1015.6 |
| 20260503230552 | 76 | 0 | 2.6 | 9.6 | 0.00 | 0.00 | 0.00 | 35 | 1015.6 |
| 20260503230056 | 76 | 0 | 2.6 | 9.6 | 0.00 | 0.00 | 0.00 | 36 | 1015.7 |
| 20260503225553 | 76 | 210 | 4.3 | 9.6 | 0.00 | 0.00 | 0.00 | 35 | 1015.6 |
| 20260503225052 | 76 | 0 | 4.3 | 9.6 | 0.00 | 0.00 | 0.00 | 36 | 1015.8 |
| 20260503224554 | 77 | 0 | 0.0 | 7.8 | 0.00 | 0.00 | 0.00 | 36 | 1015.8 |
| 20260503224055 | 76 | 0 | 0.9 | 10.4 | 0.00 | 0.00 | 0.00 | 36 | 1015.7 |
| 20260503223553 | 77 | 0 | 0.0 | 10.4 | 0.00 | 0.00 | 0.00 | 35 | 1015.8 |
| 20260503223058 | 77 | 0 | 2.6 | 10.4 | 0.00 | 0.00 | 0.00 | 34 | 1015.9 |
| 20260503222552 | 76 | 0 | 0.0 | 8.7 | 0.00 | 0.00 | 0.00 | 36 | 1015.9 |
| 20260503222052 | 76 | 0 | 0.9 | 10.4 | 0.00 | 0.00 | 0.00 | 37 | 1016.1 |
| 20260503221557 | 76 | 0 | 0.0 | 13.9 | 0.00 | 0.00 | 0.00 | 39 | 1016.1 |
| 20260503221055 | 77 | 236 | 7.0 | 13.9 | 0.00 | 0.00 | 0.00 | 37 | 1016.2 |
| 20260503220552 | 77 | 0 | 0.0 | 9.6 | 0.00 | 0.00 | 0.00 | 37 | 1016.1 |
| 20260503220057 | 76 | 0 | 1.7 | 13.9 | 0.00 | 0.00 | 0.00 | 37 | 1016.1 |
| 20260503215551 | 76 | 0 | 0.9 | 15.6 | 0.00 | 0.00 | 0.00 | 39 | 1016.3 |
| 20260503215051 | 76 | 250 | 9.6 | 15.6 | 0.00 | 0.00 | 0.00 | 37 | 1016.4 |
| 20260503214555 | 76 | 230 | 6.1 | 13.9 | 0.00 | 0.00 | 0.00 | 38 | 1016.5 |
| 20260503214052 | 76 | 212 | 0.0 | 9.6 | 0.00 | 0.00 | 0.00 | 40 | 1016.4 |
| 20260503213552 | 76 | 0 | 3.5 | 11.3 | 0.00 | 0.00 | 0.00 | 37 | 1016.4 |
| 20260503213100 | 76 | 0 | 5.2 | 11.3 | 0.00 | 0.00 | 0.00 | 40 | 1016.5 |
| 20260503212558 | 76 | 242 | 2.6 | 15.6 | 0.00 | 0.00 | 0.00 | 39 | 1016.6 |
| 20260503212055 | 76 | 308 | 0.0 | 15.6 | 0.00 | 0.00 | 0.00 | 38 | 1016.6 |
| 20260503211615 | 75 | 286 | 7.8 | 15.6 | 0.00 | 0.00 | 0.00 | 37 | 1016.7 |
| 20260503211052 | 75 | 0 | 4.3 | 15.6 | 0.00 | 0.00 | 0.00 | 38 | 1016.8 |
| 20260503210555 | 75 | 271 | 7.8 | 13.0 | 0.00 | 0.00 | 0.00 | 39 | 1016.9 |
| 20260503210056 | 75 | 255 | 0.0 | 11.3 | 0.00 | 0.00 | 0.00 | 38 | 1016.9 |
| 20260503205552 | 75 | 0 | 1.7 | 15.6 | 0.00 | 0.00 | 0.00 | 37 | 1016.9 |
| 20260503205053 | 74 | 234 | 7.0 | 16.5 | 0.00 | 0.00 | 0.00 | 37 | 1017.1 |
| 20260503204555 | 75 | 253 | 8.7 | 16.5 | 0.00 | 0.00 | 0.00 | 38 | 1017.2 |
| 20260503204056 | 75 | 294 | 5.2 | 17.4 | 0.00 | 0.00 | 0.00 | 36 | 1017.3 |
| 20260503203555 | 75 | 244 | 13.0 | 17.4 | 0.00 | 0.00 | 0.00 | 38 | 1017.5 |
| 20260503203114 | 75 | 283 | 9.6 | 13.9 | 0.00 | 0.00 | 0.00 | 37 | 1017.5 |
| 20260503202555 | 75 | 0 | 6.1 | 15.6 | 0.00 | 0.00 | 0.00 | 38 | 1017.6 |
| 20260503202059 | 75 | 0 | 0.9 | 16.5 | 0.00 | 0.00 | 0.00 | 39 | 1017.6 |
| 20260503201558 | 75 | 259 | 9.6 | 16.5 | 0.00 | 0.00 | 0.00 | 39 | 1017.9 |
| 20260503201055 | 74 | 0 | 0.9 | 13.0 | 0.00 | 0.00 | 0.00 | 38 | 1017.9 |
| 20260503200559 | 74 | 243 | 7.8 | 13.0 | 0.00 | 0.00 | 0.00 | 39 | 1018.0 |
| 20260503200057 | 74 | 229 | 7.0 | 17.4 | 0.00 | 0.00 | 0.00 | 40 | 1018.0 |
| 20260503195555 | 74 | 281 | 1.7 | 17.4 | 0.00 | 0.00 | 0.00 | 40 | 1018.2 |
| 20260503195056 | 74 | 264 | 13.0 | 17.4 | 0.00 | 0.00 | 0.00 | 38 | 1018.3 |
| 20260503194558 | 74 | 269 | 4.3 | 18.2 | 0.00 | 0.00 | 0.00 | 38 | 1018.3 |
| 20260503194055 | 74 | 293 | 6.1 | 18.2 | 0.00 | 0.00 | 0.00 | 38 | 1018.5 |
| 20260503193056 | 74 | 279 | 2.6 | 11.3 | 0.00 | 0.00 | 0.00 | 40 | 1018.7 |
| 20260503192554 | 73 | 262 | 4.3 | 11.3 | 0.00 | 0.00 | 0.00 | 40 | 1018.7 |
| 20260503192052 | 73 | 0 | 6.1 | 13.9 | 0.00 | 0.00 | 0.00 | 38 | 1018.7 |
| 20260503191553 | 73 | 262 | 8.7 | 13.9 | 0.00 | 0.00 | 0.00 | 40 | 1018.7 |
| 20260503191055 | 73 | 276 | 5.2 | 11.3 | 0.00 | 0.00 | 0.00 | 38 | 1018.8 |
| 20260503190551 | 73 | 360 | 4.3 | 13.0 | 0.00 | 0.00 | 0.00 | 38 | 1018.8 |
| 20260503190053 | 73 | 318 | 7.8 | 16.5 | 0.00 | 0.00 | 0.00 | 36 | 1018.9 |
| 20260503185551 | 73 | 266 | 8.7 | 16.5 | 0.00 | 0.00 | 0.00 | 37 | 1019.1 |
| 20260503185052 | 73 | 0 | 7.0 | 16.5 | 0.00 | 0.00 | 0.00 | 36 | 1019.0 |
| 20260503184556 | 73 | 0 | 3.5 | 15.6 | 0.00 | 0.00 | 0.00 | 38 | 1019.1 |
| 20260503184057 | 73 | 286 | 7.0 | 15.6 | 0.00 | 0.00 | 0.00 | 36 | 1019.1 |
| 20260503183552 | 73 | 283 | 7.8 | 13.0 | 0.00 | 0.00 | 0.00 | 34 | 1019.2 |
| 20260503183053 | 73 | 0 | 0.9 | 9.6 | 0.00 | 0.00 | 0.00 | 35 | 1019.3 |
| 20260503182552 | 73 | 0 | 2.6 | 9.6 | 0.00 | 0.00 | 0.00 | 35 | 1019.3 |
| 20260503182056 | 72 | 0 | 0.0 | 8.7 | 0.00 | 0.00 | 0.00 | 35 | 1019.5 |
| 20260503181602 | 72 | 0 | 2.6 | 13.0 | 0.00 | 0.00 | 0.00 | 36 | 1019.5 |
| 20260503181053 | 72 | 0 | 3.5 | 13.0 | 0.00 | 0.00 | 0.00 | 35 | 1019.6 |
| 20260503180552 | 73 | 269 | 4.3 | 11.3 | 0.00 | 0.00 | 0.00 | 38 | 1019.6 |
| 20260503180059 | 73 | 0 | 0.0 | 12.2 | 0.00 | 0.00 | 0.00 | 35 | 1019.7 |
| 20260503175553 | 72 | 221 | 0.0 | 12.2 | 0.00 | 0.00 | 0.00 | 39 | 1019.8 |
| 20260503175053 | 72 | 276 | 7.8 | 12.2 | 0.00 | 0.00 | 0.00 | 37 | 1020.0 |
| 20260503174055 | 71 | 0 | 1.7 | 13.0 | 0.00 | 0.00 | 0.00 | 39 | 1020.1 |
| 20260503173553 | 71 | 0 | 3.5 | 13.0 | 0.00 | 0.00 | 0.00 | 38 | 1020.2 |
| 20260503173100 | 71 | 231 | 3.5 | 13.0 | 0.00 | 0.00 | 0.00 | 38 | 1020.2 |
| 20260503172553 | 71 | 149 | 0.0 | 9.6 | 0.00 | 0.00 | 0.00 | 42 | 1020.2 |
| 20260503172052 | 71 | 151 | 0.9 | 11.3 | 0.00 | 0.00 | 0.00 | 40 | 1020.3 |
| 20260503171554 | 71 | 0 | 1.7 | 11.3 | 0.00 | 0.00 | 0.00 | 41 | 1020.3 |
| 20260503171052 | 71 | 0 | 3.5 | 11.3 | 0.00 | 0.00 | 0.00 | 42 | 1020.5 |
| 20260503170553 | 70 | 0 | 0.9 | 8.7 | 0.00 | 0.00 | 0.00 | 44 | 1020.5 |
| 20260503150552 | 64 | 164 | 4.3 | 11.3 | 0.00 | 0.00 | 0.00 | 50 | 1021.6 |
| 20260503131056 | 56 | 127 | 7.0 | 10.4 | 0.00 | 0.00 | 0.00 | 67 | 1021.5 |
| 20260503130552 | 56 | 110 | 7.0 | 9.6 | 0.00 | 0.00 | 0.00 | 69 | 1021.4 |
| 20260503120103 | 50 | 0 | 0.0 | 0.0 | 0.00 | 0.00 | 0.00 | 83 | 1021.1 |
| 20260503110555 | 49 | 0 | 0.0 | 0.0 | 0.00 | 0.00 | 0.00 | 83 | 1020.5 |
| 20260503100104 | 50 | 0 | 0.0 | 0.0 | 0.00 | 0.00 | 0.00 | 81 | 1019.8 |
| 20260503081553 | 53 | 64 | 3.5 | 6.1 | 0.00 | 0.00 | 0.00 | 73 | 1019.4 |
| 20260503081055 | 53 | 83 | 2.6 | 6.1 | 0.00 | 0.00 | 0.00 | 73 | 1019.3 |
| 20260503080555 | 53 | 68 | 0.0 | 4.3 | 0.00 | 0.00 | 0.00 | 72 | 1019.3 |
| 20260503072552 | 55 | 0 | 0.0 | 2.6 | 0.00 | 0.00 | 0.00 | 67 | 1019.1 |
| 20260503072053 | 55 | 0 | 0.0 | 0.0 | 0.00 | 0.00 | 0.00 | 67 | 1019.2 |
| 20260503071604 | 55 | 0 | 0.0 | 4.3 | 0.00 | 0.00 | 0.00 | 67 | 1019.2 |
| 20260503071052 | 55 | 0 | 0.0 | 4.3 | 0.00 | 0.00 | 0.00 | 67 | 1019.2 |
| 20260503070555 | 54 | 0 | 0.0 | 1.7 | 0.00 | 0.00 | 0.00 | 69 | 1019.2 |
| 20260503070105 | 54 | 0 | 0.0 | 0.0 | 0.00 | 0.00 | 0.00 | 71 | 1019.3 |
| 20260503060107 | 55 | 0 | 0.0 | 0.0 | 0.00 | 0.00 | 0.00 | 74 | 1019.1 |
| 20260503055052 | 55 | 0 | 0.0 | 0.0 | 0.00 | 0.00 | 0.00 | 75 | 1019.0 |
| 20260503054555 | 55 | 0 | 0.0 | 0.0 | 0.00 | 0.00 | 0.00 | 75 | 1018.9 |
| 20260503054053 | 55 | 0 | 0.0 | 0.0 | 0.00 | 0.00 | 0.00 | 74 | 1018.9 |
| 20260503053553 | 55 | 0 | 0.0 | 0.0 | 0.00 | 0.00 | 0.00 | 73 | 1018.9 |
| 20260503053051 | 55 | 0 | 0.0 | 0.0 | 0.00 | 0.00 | 0.00 | 73 | 1018.7 |
| 20260503052552 | 55 | 0 | 0.0 | 0.0 | 0.00 | 0.00 | 0.00 | 73 | 1018.9 |
| 20260503052052 | 55 | 0 | 0.0 | 0.0 | 0.00 | 0.00 | 0.00 | 74 | 1018.7 |
| 20260503051552 | 55 | 0 | 0.0 | 0.0 | 0.00 | 0.00 | 0.00 | 74 | 1018.6 |
| 20260503051051 | 55 | 0 | 0.0 | 0.0 | 0.00 | 0.00 | 0.00 | 74 | 1018.7 |
| 20260503050556 | 56 | 0 | 0.0 | 0.0 | 0.00 | 0.00 | 0.00 | 74 | 1018.7 |
| 20260503050053 | 56 | 0 | 0.0 | 0.0 | 0.00 | 0.00 | 0.00 | 72 | 1018.7 |
| 20260503045552 | 56 | 0 | 0.0 | 0.0 | 0.00 | 0.00 | 0.00 | 71 | 1018.6 |
| 20260503045053 | 56 | 0 | 0.0 | 0.0 | 0.00 | 0.00 | 0.00 | 71 | 1018.6 |
| 20260503044601 | 56 | 0 | 0.0 | 0.0 | 0.00 | 0.00 | 0.00 | 73 | 1018.6 |